| time (UTC) | temp C | wind direction | speed KPH | gust KPH | rain 1hr cm | rain 24hr cm | rain mn cm | humidity % | barometer mb |
| 20260506193045 | 13 | 100 | 11.3 | 24.1 | 0.08 | 0.15 | 0.15 | 97 | 1008.5 |
| 20260506192543 | 13 | 95 | 12.9 | 24.1 | 0.10 | 0.15 | 0.15 | 97 | 1008.6 |
| 20260506192042 | 13 | 95 | 9.7 | 25.7 | 0.10 | 0.15 | 0.15 | 97 | 1008.6 |
| 20260506191546 | 13 | 105 | 9.7 | 30.6 | 0.10 | 0.15 | 0.15 | 97 | 1008.7 |
| 20260506191041 | 13 | 126 | 14.5 | 30.6 | 0.13 | 0.15 | 0.15 | 96 | 1008.7 |
| 20260506190541 | 13 | 100 | 4.8 | 22.5 | 0.13 | 0.15 | 0.15 | 97 | 1008.6 |
| 20260506190042 | 13 | 88 | 8.0 | 25.7 | 0.13 | 0.15 | 0.15 | 96 | 1008.5 |
| 20260506185546 | 13 | 57 | 14.5 | 25.7 | 0.10 | 0.13 | 0.13 | 96 | 1008.6 |
| 20260506185044 | 13 | 70 | 8.0 | 24.1 | 0.13 | 0.13 | 0.13 | 96 | 1008.9 |
| 20260506184539 | 13 | 86 | 11.3 | 22.5 | 0.10 | 0.10 | 0.10 | 96 | 1009.0 |
| 20260506184139 | 13 | 64 | 12.9 | 29.0 | 0.10 | 0.10 | 0.10 | 95 | 1008.8 |
| 20260506183538 | 13 | 55 | 12.9 | 29.0 | 0.08 | 0.08 | 0.08 | 95 | 1008.6 |
| 20260506183038 | 13 | 76 | 3.2 | 14.5 | 0.08 | 0.08 | 0.08 | 95 | 1008.7 |
| 20260506182537 | 13 | 67 | 3.2 | 16.1 | 0.05 | 0.05 | 0.05 | 94 | 1008.8 |
| 20260506182037 | 14 | 59 | 6.4 | 17.7 | 0.05 | 0.05 | 0.05 | 94 | 1009.0 |
| 20260506181538 | 14 | 327 | 6.4 | 22.5 | 0.05 | 0.05 | 0.05 | 93 | 1009.0 |
| 20260506181035 | 14 | 45 | 6.4 | 22.5 | 0.03 | 0.03 | 0.03 | 93 | 1009.0 |
| 20260506180535 | 14 | 67 | 8.0 | 27.4 | 0.03 | 0.03 | 0.03 | 92 | 1009.2 |
| 20260506180045 | 14 | 82 | 6.4 | 27.4 | 0.03 | 0.03 | 0.03 | 92 | 1009.3 |
| 20260506175535 | 15 | 63 | 6.4 | 25.7 | 0.03 | 0.03 | 0.03 | 91 | 1009.7 |
| 20260506175033 | 15 | 100 | 11.3 | 25.7 | 0.00 | 0.00 | 0.00 | 89 | 1009.7 |
| 20260506174532 | 15 | 82 | 11.3 | 20.9 | 0.00 | 0.00 | 0.00 | 88 | 1009.7 |
| 20260506174032 | 15 | 100 | 6.4 | 20.9 | 0.00 | 0.00 | 0.00 | 87 | 1009.7 |
| 20260506173533 | 15 | 123 | 11.3 | 20.9 | 0.00 | 0.00 | 0.00 | 87 | 1009.8 |
| 20260506173032 | 16 | 84 | 6.4 | 19.3 | 0.00 | 0.00 | 0.00 | 86 | 1009.8 |
| 20260506172530 | 16 | 95 | 6.4 | 24.1 | 0.00 | 0.00 | 0.00 | 85 | 1009.8 |
| 20260506172034 | 16 | 91 | 11.3 | 30.6 | 0.00 | 0.00 | 0.00 | 83 | 1010.0 |
| 20260506171545 | 16 | 105 | 14.5 | 30.6 | 0.00 | 0.00 | 0.00 | 82 | 1010.0 |
| 20260506171030 | 16 | 46 | 6.4 | 17.7 | 0.00 | 0.00 | 0.00 | 83 | 1010.0 |
| 20260506170530 | 16 | 82 | 9.7 | 29.0 | 0.00 | 0.00 | 0.00 | 82 | 1009.9 |
| 20260506170029 | 16 | 63 | 11.3 | 30.6 | 0.00 | 0.00 | 0.00 | 82 | 1010.0 |
| 20260506165529 | 17 | 100 | 12.9 | 25.7 | 0.00 | 0.00 | 0.00 | 82 | 1009.9 |
| 20260506165032 | 17 | 38 | 16.1 | 32.2 | 0.00 | 0.00 | 0.00 | 81 | 1010.0 |
| 20260506164528 | 17 | 74 | 19.3 | 33.8 | 0.00 | 0.00 | 0.00 | 81 | 1010.0 |
| 20260506164027 | 17 | 51 | 16.1 | 33.8 | 0.00 | 0.00 | 0.00 | 80 | 1010.1 |
| 20260506163527 | 17 | 39 | 6.4 | 29.0 | 0.00 | 0.00 | 0.00 | 81 | 1010.2 |
| 20260506163031 | 17 | 86 | 14.5 | 29.0 | 0.00 | 0.00 | 0.00 | 81 | 1010.1 |
| 20260506162526 | 17 | 13 | 11.3 | 27.4 | 0.00 | 0.00 | 0.00 | 80 | 1010.1 |
| 20260506162027 | 17 | 95 | 8.0 | 27.4 | 0.00 | 0.00 | 0.00 | 81 | 1010.1 |
| 20260506161536 | 17 | 113 | 9.7 | 30.6 | 0.00 | 0.00 | 0.00 | 80 | 1010.1 |
| 20260506161026 | 17 | 57 | 11.3 | 30.6 | 0.00 | 0.00 | 0.00 | 79 | 1010.4 |
| 20260506160529 | 17 | 69 | 9.7 | 22.5 | 0.00 | 0.00 | 0.00 | 80 | 1010.4 |
| 20260506160026 | 17 | 95 | 9.7 | 22.5 | 0.00 | 0.00 | 0.00 | 79 | 1010.4 |
| 20260506155526 | 17 | 61 | 9.7 | 27.4 | 0.00 | 0.00 | 0.00 | 78 | 1010.6 |
| 20260506155026 | 18 | 26 | 9.7 | 27.4 | 0.00 | 0.00 | 0.00 | 78 | 1010.5 |
| 20260506154525 | 18 | 50 | 8.0 | 24.1 | 0.00 | 0.00 | 0.00 | 78 | 1010.4 |
| 20260506154025 | 18 | 55 | 8.0 | 24.1 | 0.00 | 0.00 | 0.00 | 77 | 1010.4 |
| 20260506153526 | 18 | 109 | 11.3 | 25.7 | 0.00 | 0.00 | 0.00 | 76 | 1010.3 |
| 20260506153024 | 18 | 84 | 9.7 | 30.6 | 0.00 | 0.00 | 0.00 | 77 | 1010.3 |
| 20260506152525 | 18 | 76 | 17.7 | 37.0 | 0.00 | 0.00 | 0.00 | 76 | 1010.3 |
| 20260506152024 | 18 | 74 | 17.7 | 37.0 | 0.00 | 0.00 | 0.00 | 75 | 1010.4 |
| 20260506151526 | 18 | 146 | 11.3 | 30.6 | 0.00 | 0.00 | 0.00 | 77 | 1010.3 |
| 20260506151023 | 18 | 95 | 19.3 | 30.6 | 0.00 | 0.00 | 0.00 | 76 | 1010.2 |
| 20260506150524 | 18 | 67 | 11.3 | 27.4 | 0.00 | 0.00 | 0.00 | 76 | 1010.5 |
| 20260506150026 | 18 | 63 | 12.9 | 22.5 | 0.00 | 0.00 | 0.00 | 75 | 1010.4 |
| 20260506145525 | 19 | 75 | 9.7 | 24.1 | 0.00 | 0.00 | 0.00 | 75 | 1010.6 |
| 20260506145022 | 19 | 69 | 11.3 | 33.8 | 0.00 | 0.00 | 0.00 | 76 | 1010.5 |
| 20260506144521 | 19 | 51 | 19.3 | 33.8 | 0.00 | 0.00 | 0.00 | 75 | 1010.4 |
| 20260506144020 | 18 | 13 | 11.3 | 30.6 | 0.00 | 0.00 | 0.00 | 76 | 1010.4 |
| 20260506143520 | 18 | 73 | 14.5 | 32.2 | 0.00 | 0.00 | 0.00 | 75 | 1010.5 |
| 20260506143019 | 18 | 49 | 9.7 | 33.8 | 0.00 | 0.00 | 0.00 | 76 | 1010.5 |
| 20260506142517 | 18 | 48 | 12.9 | 40.2 | 0.00 | 0.00 | 0.00 | 76 | 1010.7 |
| 20260506142017 | 18 | 88 | 14.5 | 33.8 | 0.00 | 0.00 | 0.00 | 79 | 1010.9 |
| 20260506141516 | 18 | 85 | 12.9 | 29.0 | 0.00 | 0.00 | 0.00 | 79 | 1010.9 |
| 20260506141015 | 18 | 112 | 11.3 | 25.7 | 0.00 | 0.00 | 0.00 | 78 | 1010.8 |
| 20260506140514 | 18 | 51 | 12.9 | 25.7 | 0.00 | 0.00 | 0.00 | 78 | 1010.8 |
| 20260506140013 | 18 | 86 | 16.1 | 25.7 | 0.00 | 0.00 | 0.00 | 79 | 1010.6 |
| 20260506135513 | 18 | 71 | 12.9 | 25.7 | 0.00 | 0.00 | 0.00 | 78 | 1010.7 |
| 20260506135020 | 18 | 70 | 9.7 | 25.7 | 0.00 | 0.00 | 0.00 | 79 | 1010.7 |
| 20260506134521 | 17 | 78 | 12.9 | 25.7 | 0.00 | 0.00 | 0.00 | 79 | 1010.5 |
| 20260506134010 | 17 | 95 | 11.3 | 22.5 | 0.00 | 0.00 | 0.00 | 80 | 1010.6 |
| 20260506133511 | 17 | 11 | 11.3 | 27.4 | 0.00 | 0.00 | 0.00 | 79 | 1010.5 |
| 20260506133008 | 17 | 77 | 9.7 | 30.6 | 0.00 | 0.00 | 0.00 | 81 | 1010.7 |
| 20260506132507 | 17 | 71 | 4.8 | 30.6 | 0.00 | 0.00 | 0.00 | 82 | 1010.6 |
| 20260506132007 | 17 | 80 | 11.3 | 29.0 | 0.00 | 0.00 | 0.00 | 81 | 1010.5 |
| 20260506131505 | 17 | 34 | 11.3 | 29.0 | 0.00 | 0.00 | 0.00 | 82 | 1010.5 |
| 20260506131005 | 17 | 59 | 9.7 | 29.0 | 0.00 | 0.00 | 0.00 | 82 | 1010.8 |
| 20260506130504 | 17 | 45 | 12.9 | 29.0 | 0.00 | 0.00 | 0.00 | 82 | 1010.7 |
| 20260506130005 | 17 | 63 | 11.3 | 30.6 | 0.00 | 0.00 | 0.00 | 83 | 1010.7 |
| 20260506125503 | 17 | 82 | 11.3 | 24.1 | 0.00 | 0.00 | 0.00 | 82 | 1011.0 |
| 20260506125101 | 17 | 105 | 12.9 | 25.7 | 0.00 | 0.00 | 0.00 | 83 | 1011.1 |
| 20260506124609 | 17 | 100 | 12.9 | 27.4 | 0.00 | 0.00 | 0.00 | 84 | 1011.1 |
| 20260506124058 | 16 | 95 | 11.3 | 27.4 | 0.00 | 0.00 | 0.00 | 86 | 1011.2 |
| 20260506123557 | 16 | 36 | 11.3 | 25.7 | 0.00 | 0.00 | 0.00 | 85 | 1011.1 |
| 20260506123056 | 16 | 110 | 17.7 | 25.7 | 0.00 | 0.00 | 0.00 | 87 | 1011.0 |
| 20260506122553 | 15 | 51 | 11.3 | 24.1 | 0.00 | 0.00 | 0.00 | 89 | 1011.1 |
| 20260506122053 | 15 | 78 | 11.3 | 19.3 | 0.00 | 0.00 | 0.00 | 88 | 1011.1 |
| 20260506121601 | 15 | 86 | 8.0 | 19.3 | 0.00 | 0.00 | 0.00 | 89 | 1011.1 |
| 20260506121051 | 15 | 75 | 8.0 | 19.3 | 0.00 | 0.00 | 0.00 | 89 | 1011.1 |
| 20260506120551 | 15 | 78 | 9.7 | 19.3 | 0.00 | 0.00 | 0.00 | 89 | 1011.2 |
| 20260506120051 | 15 | 43 | 4.8 | 19.3 | 0.00 | 0.00 | 0.00 | 89 | 1011.1 |
| 20260506115551 | 15 | 62 | 4.8 | 19.3 | 0.00 | 0.00 | 0.00 | 90 | 1011.1 |
| 20260506115049 | 14 | 61 | 6.4 | 24.1 | 0.00 | 0.00 | 0.00 | 90 | 1010.9 |
| 20260506114553 | 14 | 67 | 11.3 | 24.1 | 0.00 | 0.00 | 0.00 | 90 | 1011.0 |
| 20260506114048 | 14 | 51 | 8.0 | 25.7 | 0.00 | 0.00 | 0.00 | 91 | 1010.9 |
| 20260506113548 | 14 | 75 | 8.0 | 25.7 | 0.00 | 0.00 | 0.00 | 91 | 1010.9 |
| 20260506113047 | 14 | 91 | 8.0 | 19.3 | 0.00 | 0.00 | 0.00 | 91 | 1011.2 |
| 20260506112547 | 14 | 70 | 6.4 | 19.3 | 0.00 | 0.00 | 0.00 | 92 | 1011.2 |
| 20260506112045 | 13 | 60 | 12.9 | 19.3 | 0.00 | 0.00 | 0.00 | 91 | 1011.3 |
| 20260506111554 | 13 | 95 | 8.0 | 24.1 | 0.00 | 0.00 | 0.00 | 92 | 1011.2 |
| 20260506111044 | 13 | 49 | 11.3 | 24.1 | 0.00 | 0.00 | 0.00 | 92 | 1011.2 |
| 20260506110546 | 13 | 60 | 9.7 | 19.3 | 0.00 | 0.00 | 0.00 | 93 | 1011.0 |
| 20260506110043 | 13 | 95 | 9.7 | 19.3 | 0.00 | 0.00 | 0.00 | 93 | 1011.2 |
| 20260506105544 | 13 | 73 | 6.4 | 22.5 | 0.00 | 0.00 | 0.00 | 93 | 1011.2 |
| 20260506105042 | 13 | 95 | 4.8 | 22.5 | 0.00 | 0.00 | 0.00 | 93 | 1011.2 |
| 20260506104542 | 13 | 84 | 6.4 | 19.3 | 0.00 | 0.00 | 0.00 | 93 | 1011.2 |
| 20260506104040 | 13 | 52 | 8.0 | 19.3 | 0.00 | 0.00 | 0.00 | 94 | 1011.2 |
| 20260506103540 | 13 | 87 | 8.0 | 17.7 | 0.00 | 0.00 | 0.00 | 94 | 1011.0 |
| 20260506103039 | 13 | 57 | 6.4 | 20.9 | 0.00 | 0.00 | 0.00 | 94 | 1011.1 |
| 20260506102538 | 13 | 86 | 11.3 | 22.5 | 0.00 | 0.00 | 0.00 | 94 | 1011.1 |
| 20260506102039 | 13 | 70 | 9.7 | 22.5 | 0.00 | 0.00 | 0.00 | 93 | 1011.0 |
| 20260506101537 | 13 | 71 | 9.7 | 22.5 | 0.00 | 0.00 | 0.00 | 93 | 1011.1 |
| 20260506101036 | 13 | 51 | 11.3 | 19.3 | 0.00 | 0.00 | 0.00 | 93 | 1011.0 |
| 20260506100536 | 13 | 69 | 4.8 | 22.5 | 0.00 | 0.00 | 0.00 | 93 | 1011.0 |
| 20260506100036 | 13 | 95 | 6.4 | 22.5 | 0.00 | 0.00 | 0.00 | 93 | 1011.0 |
| 20260506095536 | 13 | 82 | 4.8 | 16.1 | 0.00 | 0.00 | 0.00 | 93 | 1011.0 |
| 20260506095037 | 13 | 83 | 4.8 | 19.3 | 0.00 | 0.00 | 0.00 | 93 | 1011.0 |
| 20260506094533 | 13 | 82 | 4.8 | 20.9 | 0.00 | 0.00 | 0.00 | 92 | 1010.9 |
| 20260506094034 | 13 | 40 | 11.3 | 19.3 | 0.00 | 0.00 | 0.00 | 92 | 1011.0 |
| 20260506093531 | 13 | 64 | 9.7 | 20.9 | 0.00 | 0.00 | 0.00 | 92 | 1011.0 |
| 20260506093031 | 13 | 56 | 8.0 | 24.1 | 0.00 | 0.00 | 0.00 | 92 | 1011.0 |
| 20260506092531 | 13 | 74 | 6.4 | 24.1 | 0.00 | 0.00 | 0.00 | 92 | 1011.0 |
| 20260506092030 | 13 | 42 | 9.7 | 24.1 | 0.00 | 0.00 | 0.00 | 92 | 1011.0 |
| 20260506091530 | 13 | 61 | 9.7 | 24.1 | 0.00 | 0.00 | 0.00 | 92 | 1011.0 |
| 20260506091030 | 13 | 95 | 12.9 | 24.1 | 0.00 | 0.00 | 0.00 | 92 | 1011.1 |
| 20260506090528 | 13 | 55 | 11.3 | 24.1 | 0.00 | 0.00 | 0.00 | 91 | 1011.1 |
| 20260506090029 | 13 | 69 | 11.3 | 24.1 | 0.00 | 0.00 | 0.00 | 91 | 1011.1 |
| 20260506085529 | 13 | 64 | 11.3 | 22.5 | 0.00 | 0.00 | 0.00 | 91 | 1011.2 |
| 20260506085028 | 13 | 86 | 8.0 | 17.7 | 0.00 | 0.00 | 0.00 | 91 | 1011.2 |
| 20260506084528 | 13 | 44 | 9.7 | 24.1 | 0.00 | 0.00 | 0.00 | 91 | 1011.2 |
| 20260506084027 | 13 | 63 | 9.7 | 27.4 | 0.00 | 0.00 | 0.00 | 91 | 1011.1 |
| 20260506083527 | 13 | 69 | 11.3 | 27.4 | 0.00 | 0.00 | 0.00 | 91 | 1011.2 |
| 20260506083027 | 13 | 100 | 8.0 | 22.5 | 0.00 | 0.00 | 0.00 | 90 | 1011.2 |
| 20260506082527 | 13 | 65 | 8.0 | 20.9 | 0.00 | 0.00 | 0.00 | 90 | 1011.1 |
| 20260506082025 | 13 | 55 | 11.3 | 24.1 | 0.00 | 0.00 | 0.00 | 90 | 1011.1 |
| 20260506081531 | 13 | 95 | 8.0 | 25.7 | 0.00 | 0.00 | 0.00 | 90 | 1011.1 |
| 20260506081028 | 13 | 63 | 14.5 | 25.7 | 0.00 | 0.00 | 0.00 | 90 | 1011.3 |
| 20260506080525 | 13 | 90 | 12.9 | 25.7 | 0.00 | 0.00 | 0.00 | 90 | 1011.2 |
| 20260506073522 | 13 | 76 | 12.9 | 30.6 | 0.00 | 0.00 | 0.00 | 89 | 1011.3 |
| 20260506073020 | 13 | 105 | 9.7 | 25.7 | 0.00 | 0.00 | 0.00 | 89 | 1011.3 |
| 20260506072524 | 13 | 52 | 11.3 | 27.4 | 0.00 | 0.00 | 0.00 | 89 | 1011.2 |
| 20260506072018 | 13 | 95 | 11.3 | 33.8 | 0.00 | 0.00 | 0.00 | 89 | 1011.4 |
| 20260506071518 | 13 | 85 | 16.1 | 33.8 | 0.00 | 0.00 | 0.00 | 88 | 1011.3 |
| 20260506071017 | 13 | 95 | 9.7 | 30.6 | 0.00 | 0.00 | 0.00 | 88 | 1011.3 |
| 20260506070516 | 13 | 63 | 11.3 | 35.4 | 0.00 | 0.00 | 0.00 | 88 | 1011.2 |
| 20260506062511 | 14 | 100 | 12.9 | 27.4 | 0.00 | 0.00 | 0.00 | 87 | 1011.2 |
| 20260506062012 | 14 | 57 | 11.3 | 25.7 | 0.00 | 0.00 | 0.00 | 86 | 1011.2 |
| 20260506061511 | 14 | 75 | 12.9 | 29.0 | 0.00 | 0.00 | 0.00 | 86 | 1011.1 |
| 20260506061014 | 14 | 84 | 14.5 | 33.8 | 0.00 | 0.00 | 0.00 | 86 | 1011.2 |
| 20260506060509 | 14 | 57 | 17.7 | 33.8 | 0.00 | 0.00 | 0.00 | 86 | 1011.2 |
| 20260506051059 | 15 | 105 | 11.3 | 35.4 | 0.00 | 0.00 | 0.00 | 84 | 1011.8 |
| 20260506050557 | 15 | 100 | 16.1 | 35.4 | 0.00 | 0.00 | 0.00 | 84 | 1011.7 |
| 20260506050111 | 15 | 44 | 11.3 | 29.0 | 0.00 | 0.00 | 0.00 | 84 | 1011.8 |
| 20260506045059 | 15 | 78 | 12.9 | 25.7 | 0.00 | 0.00 | 0.00 | 84 | 1011.9 |
| 20260506044557 | 15 | 82 | 9.7 | 30.6 | 0.00 | 0.00 | 0.00 | 83 | 1011.8 |
| 20260506044053 | 15 | 76 | 14.5 | 30.6 | 0.00 | 0.00 | 0.00 | 83 | 1011.9 |
| 20260506043552 | 15 | 62 | 17.7 | 29.0 | 0.00 | 0.00 | 0.00 | 83 | 1011.9 |
| 20260506043056 | 15 | 57 | 12.9 | 29.0 | 0.00 | 0.00 | 0.00 | 83 | 1011.8 |
| 20260506042550 | 15 | 51 | 16.1 | 29.0 | 0.00 | 0.00 | 0.00 | 83 | 1011.8 |
| 20260506042050 | 15 | 40 | 11.3 | 27.4 | 0.00 | 0.00 | 0.00 | 83 | 1011.7 |
| 20260506041548 | 15 | 23 | 17.7 | 33.8 | 0.00 | 0.00 | 0.00 | 82 | 1011.7 |
| 20260506041047 | 15 | 105 | 11.3 | 33.8 | 0.00 | 0.00 | 0.00 | 82 | 1011.8 |
| 20260506040550 | 15 | 88 | 12.9 | 37.0 | 0.00 | 0.00 | 0.00 | 81 | 1011.7 |
| 20260506040046 | 15 | 114 | 17.7 | 37.0 | 0.00 | 0.00 | 0.00 | 81 | 1011.8 |
| 20260506035546 | 15 | 105 | 9.7 | 29.0 | 0.00 | 0.00 | 0.00 | 81 | 1011.8 |
| 20260506035044 | 15 | 32 | 14.5 | 27.4 | 0.00 | 0.00 | 0.00 | 80 | 1011.7 |
| 20260506034543 | 15 | 95 | 12.9 | 35.4 | 0.00 | 0.00 | 0.00 | 80 | 1011.8 |
| 20260506034042 | 15 | 75 | 20.9 | 35.4 | 0.00 | 0.00 | 0.00 | 79 | 1011.8 |
| 20260506033542 | 16 | 85 | 12.9 | 43.5 | 0.00 | 0.00 | 0.00 | 79 | 1011.6 |
| 20260506033041 | 16 | 39 | 19.3 | 43.5 | 0.00 | 0.00 | 0.00 | 79 | 1011.7 |
| 20260506032540 | 16 | 64 | 20.9 | 35.4 | 0.00 | 0.00 | 0.00 | 78 | 1011.7 |
| 20260506032039 | 16 | 86 | 20.9 | 35.4 | 0.00 | 0.00 | 0.00 | 77 | 1011.6 |
| 20260506031540 | 16 | 95 | 19.3 | 40.2 | 0.00 | 0.00 | 0.00 | 77 | 1011.5 |
| 20260506031039 | 16 | 122 | 17.7 | 40.2 | 0.00 | 0.00 | 0.00 | 77 | 1011.5 |
| 20260506030538 | 16 | 111 | 16.1 | 37.0 | 0.00 | 0.00 | 0.00 | 76 | 1011.5 |
| 20260506030037 | 16 | 100 | 19.3 | 35.4 | 0.00 | 0.00 | 0.00 | 76 | 1011.5 |
| 20260506025538 | 16 | 57 | 14.5 | 35.4 | 0.00 | 0.00 | 0.00 | 76 | 1011.5 |
| 20260506025036 | 16 | 73 | 17.7 | 35.4 | 0.00 | 0.00 | 0.00 | 76 | 1011.5 |
| 20260506024539 | 16 | 113 | 16.1 | 32.2 | 0.00 | 0.00 | 0.00 | 76 | 1011.5 |
| 20260506024034 | 16 | 138 | 11.3 | 27.4 | 0.00 | 0.00 | 0.00 | 76 | 1011.5 |
| 20260506023532 | 16 | 176 | 12.9 | 27.4 | 0.00 | 0.00 | 0.00 | 76 | 1011.6 |
| 20260506023033 | 16 | 46 | 12.9 | 33.8 | 0.00 | 0.00 | 0.00 | 76 | 1011.6 |
| 20260506022535 | 16 | 62 | 16.1 | 29.0 | 0.00 | 0.00 | 0.00 | 76 | 1011.5 |
| 20260506022031 | 16 | 79 | 11.3 | 27.4 | 0.00 | 0.00 | 0.00 | 76 | 1011.5 |
| 20260506021531 | 16 | 100 | 12.9 | 27.4 | 0.00 | 0.00 | 0.00 | 77 | 1011.5 |
| 20260506021030 | 15 | 57 | 12.9 | 27.4 | 0.00 | 0.00 | 0.00 | 77 | 1011.5 |
| 20260506020528 | 15 | 109 | 11.3 | 29.0 | 0.00 | 0.00 | 0.00 | 77 | 1011.4 |
| 20260506020129 | 15 | 75 | 16.1 | 29.0 | 0.00 | 0.00 | 0.00 | 77 | 1011.5 |
| 20260506015528 | 15 | 78 | 14.5 | 27.4 | 0.00 | 0.00 | 0.00 | 77 | 1011.4 |
| 20260506015029 | 15 | 95 | 6.4 | 29.0 | 0.00 | 0.00 | 0.00 | 77 | 1011.4 |
| 20260506014527 | 15 | 51 | 14.5 | 29.0 | 0.00 | 0.00 | 0.00 | 77 | 1011.4 |
| 20260506014025 | 15 | 61 | 12.9 | 29.0 | 0.00 | 0.00 | 0.00 | 76 | 1011.3 |
| 20260506013525 | 15 | 15 | 16.1 | 30.6 | 0.00 | 0.00 | 0.00 | 76 | 1011.3 |
| 20260506013029 | 15 | 95 | 12.9 | 33.8 | 0.00 | 0.00 | 0.00 | 76 | 1011.2 |
| 20260506012524 | 15 | 76 | 11.3 | 30.6 | 0.00 | 0.00 | 0.00 | 76 | 1011.0 |
| 20260506012025 | 15 | 109 | 16.1 | 30.6 | 0.00 | 0.00 | 0.00 | 76 | 1011.1 |
| 20260506011554 | 15 | 78 | 14.5 | 29.0 | 0.00 | 0.00 | 0.00 | 75 | 1011.1 |
| 20260506011021 | 16 | 90 | 11.3 | 32.2 | 0.00 | 0.00 | 0.00 | 75 | 1011.1 |
| 20260506010520 | 16 | 80 | 16.1 | 32.2 | 0.00 | 0.00 | 0.00 | 75 | 1011.1 |
| 20260506010020 | 16 | 95 | 9.7 | 32.2 | 0.00 | 0.00 | 0.00 | 75 | 1011.0 |
| 20260506005518 | 16 | 42 | 12.9 | 32.2 | 0.00 | 0.00 | 0.00 | 74 | 1010.9 |
| 20260506005017 | 16 | 84 | 16.1 | 33.8 | 0.00 | 0.00 | 0.00 | 74 | 1010.8 |
| 20260506004515 | 16 | 57 | 11.3 | 33.8 | 0.00 | 0.00 | 0.00 | 75 | 1010.7 |
| 20260506004013 | 16 | 95 | 11.3 | 30.6 | 0.00 | 0.00 | 0.00 | 74 | 1010.5 |
| 20260506003513 | 16 | 58 | 9.7 | 30.6 | 0.00 | 0.00 | 0.00 | 74 | 1010.4 |
| 20260506003016 | 16 | 79 | 8.0 | 24.1 | 0.00 | 0.00 | 0.00 | 74 | 1010.4 |
| 20260506002514 | 16 | 56 | 12.9 | 27.4 | 0.00 | 0.00 | 0.00 | 74 | 1010.3 |
| 20260506002013 | 16 | 90 | 11.3 | 27.4 | 0.00 | 0.00 | 0.00 | 74 | 1010.3 |
| 20260506001510 | 16 | 66 | 12.9 | 30.6 | 0.00 | 0.00 | 0.00 | 74 | 1010.2 |
| 20260506001010 | 16 | 52 | 14.5 | 30.6 | 0.00 | 0.00 | 0.00 | 74 | 1010.0 |
| 20260506000514 | 16 | 75 | 12.9 | 27.4 | 0.00 | 0.00 | 0.00 | 73 | 1009.9 |
| 20260506000007 | 16 | 100 | 16.1 | 33.8 | 0.00 | 0.00 | 0.00 | 73 | 1009.9 |
| 20260505235507 | 16 | 146 | 14.5 | 38.6 | 0.00 | 0.00 | 0.00 | 73 | 1009.9 |
| 20260505235005 | 16 | 63 | 8.0 | 38.6 | 0.00 | 0.00 | 0.00 | 73 | 1009.9 |
| 20260505234506 | 16 | 64 | 11.3 | 37.0 | 0.00 | 0.00 | 0.00 | 72 | 1009.9 |
| 20260505234103 | 17 | 95 | 16.1 | 37.0 | 0.00 | 0.00 | 0.00 | 72 | 1009.9 |
| 20260505233601 | 17 | 184 | 11.3 | 38.6 | 0.00 | 0.00 | 0.00 | 72 | 1009.7 |
| 20260505233103 | 17 | 90 | 14.5 | 38.6 | 0.00 | 0.00 | 0.00 | 71 | 1009.4 |
| 20260505232600 | 17 | 80 | 17.7 | 33.8 | 0.00 | 0.00 | 0.00 | 71 | 1009.3 |
| 20260505232058 | 17 | 71 | 14.5 | 35.4 | 0.00 | 0.00 | 0.00 | 70 | 1009.4 |
| 20260505231612 | 17 | 62 | 12.9 | 35.4 | 0.00 | 0.00 | 0.00 | 70 | 1009.4 |
| 20260505231056 | 17 | 37 | 16.1 | 30.6 | 0.00 | 0.00 | 0.00 | 69 | 1009.3 |
| 20260505230554 | 18 | 71 | 12.9 | 35.4 | 0.00 | 0.00 | 0.00 | 69 | 1009.1 |
| 20260505230105 | 18 | 95 | 12.9 | 35.4 | 0.00 | 0.00 | 0.00 | 68 | 1008.8 |
| 20260505225556 | 18 | 136 | 17.7 | 32.2 | 0.00 | 0.00 | 0.00 | 69 | 1008.7 |
| 20260505225052 | 18 | 34 | 19.3 | 33.8 | 0.00 | 0.00 | 0.00 | 68 | 1008.8 |
| 20260505224551 | 18 | 82 | 16.1 | 33.8 | 0.00 | 0.00 | 0.00 | 68 | 1008.8 |
| 20260505224049 | 18 | 59 | 9.7 | 25.7 | 0.00 | 0.00 | 0.00 | 68 | 1009.2 |
| 20260505223553 | 18 | 9 | 12.9 | 37.0 | 0.00 | 0.00 | 0.00 | 67 | 1009.2 |
| 20260505223048 | 18 | 62 | 16.1 | 40.2 | 0.00 | 0.00 | 0.00 | 67 | 1009.1 |
| 20260505222547 | 18 | 49 | 19.3 | 40.2 | 0.00 | 0.00 | 0.00 | 67 | 1009.0 |
| 20260505222046 | 18 | 105 | 9.7 | 22.5 | 0.00 | 0.00 | 0.00 | 67 | 1009.1 |
| 20260505221554 | 19 | 56 | 9.7 | 22.5 | 0.00 | 0.00 | 0.00 | 67 | 1009.1 |
| 20260505221043 | 19 | 67 | 12.9 | 29.0 | 0.00 | 0.00 | 0.00 | 66 | 1009.1 |
| 20260505220542 | 19 | 78 | 16.1 | 29.0 | 0.00 | 0.00 | 0.00 | 65 | 1009.0 |
| 20260505220044 | 20 | 59 | 6.4 | 25.7 | 0.00 | 0.00 | 0.00 | 67 | 1008.9 |
| 20260505215540 | 20 | 126 | 11.3 | 27.4 | 0.00 | 0.00 | 0.00 | 66 | 1009.0 |
| 20260505215039 | 20 | 68 | 9.7 | 27.4 | 0.00 | 0.00 | 0.00 | 65 | 1008.9 |
| 20260505214538 | 20 | 109 | 11.3 | 32.2 | 0.00 | 0.00 | 0.00 | 64 | 1008.9 |
| 20260505214040 | 20 | 71 | 9.7 | 30.6 | 0.00 | 0.00 | 0.00 | 65 | 1008.8 |
| 20260505213535 | 20 | 95 | 11.3 | 27.4 | 0.00 | 0.00 | 0.00 | 64 | 1008.8 |
| 20260505213037 | 20 | 60 | 14.5 | 35.4 | 0.00 | 0.00 | 0.00 | 63 | 1008.9 |
| 20260505212532 | 21 | 51 | 12.9 | 35.4 | 0.00 | 0.00 | 0.00 | 62 | 1008.9 |
| 20260505212031 | 21 | 87 | 11.3 | 32.2 | 0.00 | 0.00 | 0.00 | 62 | 1008.9 |
| 20260505211536 | 21 | 68 | 14.5 | 32.2 | 0.00 | 0.00 | 0.00 | 60 | 1008.8 |
| 20260505211030 | 21 | 49 | 12.9 | 25.7 | 0.00 | 0.00 | 0.00 | 60 | 1008.6 |
| 20260505210530 | 21 | 119 | 9.7 | 29.0 | 0.00 | 0.00 | 0.00 | 61 | 1008.8 |
| 20260505210031 | 21 | 69 | 14.5 | 29.0 | 0.00 | 0.00 | 0.00 | 60 | 1008.8 |
| 20260505205527 | 21 | 79 | 12.9 | 27.4 | 0.00 | 0.00 | 0.00 | 61 | 1008.8 |
| 20260505205126 | 21 | 0.0 | 0.0 | 0.00 | 0.00 | 0.00 | 1008.8 | ||
| 20260505203551 | 22 | 69 | 14.5 | 30.6 | 0.00 | 0.00 | 0.00 | 60 | 1008.9 |
| 20260505203059 | 22 | 69 | 9.7 | 29.0 | 0.00 | 0.00 | 0.00 | 59 | 1008.9 |
| 20260505202551 | 22 | 88 | 9.7 | 29.0 | 0.00 | 0.00 | 0.00 | 60 | 1008.9 |
| 20260505202051 | 22 | 49 | 9.7 | 32.2 | 0.00 | 0.00 | 0.00 | 60 | 1008.9 |
| 20260505201550 | 22 | 117 | 12.9 | 32.2 | 0.00 | 0.00 | 0.00 | 59 | 1009.0 |
| 20260505201049 | 23 | 72 | 12.9 | 25.7 | 0.00 | 0.00 | 0.00 | 58 | 1008.9 |
| 20260505200551 | 23 | 112 | 8.0 | 24.1 | 0.00 | 0.00 | 0.00 | 59 | 1008.8 |
| 20260505200049 | 23 | 95 | 12.9 | 24.1 | 0.00 | 0.00 | 0.00 | 58 | 1008.8 |
| 20260505195649 | 23 | 80 | 6.4 | 22.5 | 0.00 | 0.00 | 0.00 | 58 | 1008.8 |
| 20260505195048 | 23 | 130 | 8.0 | 29.0 | 0.00 | 0.00 | 0.00 | 57 | 1008.8 |
| 20260505194604 | 23 | 105 | 9.7 | 30.6 | 0.00 | 0.00 | 0.00 | 59 | 1008.8 |
| 20260505194047 | 23 | 95 | 9.7 | 32.2 | 0.00 | 0.00 | 0.00 | 59 | 1008.9 |
| 20260505193548 | 23 | 69 | 9.7 | 27.4 | 0.00 | 0.00 | 0.00 | 59 | 1008.9 |